Location: Navarre
(52.9016°N, 113.4144°W)
Time: 13:43:09
(UTC+00:00)

Envisat - Pass Details

Date: 03 December 2021
Orbit: 764 x 766 km, 98.2° (Epoch: 28 January)

Event Time Altitude Azimuth Distance (km) Brightness Sun altitude
Rises 11:08:48 0° 27° (NNE) 3,247 6.7 -37.6°
Reaches altitude 10° 11:12:12 10° 51° (NE) 2,314 6.1 -37.1°
Maximum altitude 11:15:02 15° 85° (E) 1,993 5.8 -36.7°
Drops below altitude 10° 11:17:51 10° 119° (ESE) 2,304 6.0 -36.3°
Sets 11:21:12 0° 143° (SE) 3,224 6.5 -35.8°
